Location: Camp Crooked Creek
(37.9149°N, 85.6607°W)
Time: 07:29:16
(UTC-05:00)

Daily predictions for brighter satellites

Satellite Brightness Start Highest point End
(mag) Time Altitude Azimuth Time Altitude Azimuth Time Altitude Azimuth
BREEZE M DEB (TANK) 4.2 17:44:46 10° NNW 17:47:11 18° NNE 17:51:34 10° ENE
COSMOS 2406 4.0 17:43:41 10° NNW 17:49:19 60° WSW 17:54:56 10° S
Genesis I 4.4 17:47:32 10° N 17:50:42 23° NE 17:53:50 10° ESE
Cosmos 1536 Rocket 4.0 17:49:12 10° SSE 17:53:26 44° E 17:57:42 10° NNE
NOSS 3-3 (A) 4.0 17:51:21 10° SSW 17:57:27 77° ESE 18:04:02 10° NE
Cosmos 1833 Rocket 3.9 17:53:31 10° N 17:57:28 19° NE 18:01:23 10° E
NOSS 3-3 (C) 4.0 17:51:27 10° SSW 17:57:33 76° ESE 18:04:07 10° NE
Cosmos 921 Rocket 4.4 17:56:50 10° SE 17:59:55 20° E 18:03:02 10° NE
Cosmos 2082 Rocket 3.2 17:55:52 10° N 18:00:21 23° ENE 18:04:48 10° ESE
Cosmos 1238 Rocket 2.0 17:59:10 10° S 18:02:05 78° E 18:05:09 10° N
YAOGAN 1 2.7 17:58:18 10° SSE 18:02:31 54° ENE 18:06:45 10° N
SPOT 3 Rocket 3.5 17:58:03 10° SSE 18:03:11 65° ENE 18:08:19 10° N
MSX 4.1 17:58:07 10° SE 18:03:30 44° ENE 18:08:55 10° N
CZ-4 R/B 1.4 17:59:50 10° SSE 18:04:01 83° ENE 18:08:10 10° N
Cosmos 1975 3.2 18:02:20 10° N 18:06:12 41° E 18:10:01 10° SSE
Cosmos 1743 4.3 18:04:05 10° NE 18:06:28 15° ENE 18:08:49 10° ESE
ATLAS 2AS CENTAUR R/B 3.1 17:59:51 10° NNW 18:07:57 90° ENE 18:15:26 10° SSE
Cosmos 494 Rocket 4.0 18:03:03 10° NNW 18:08:19 77° ENE 18:13:35 10° SSE
COSMOS 2487 3.4 18:07:16 10° N 18:10:23 27° ENE 18:13:29 10° SE
Cosmos 1484 Rocket 3.7 18:07:56 10° SE 18:11:02 25° ENE 18:14:08 10° NNE
Cosmos 1500 3.8 18:07:46 10° N 18:11:20 36° E 18:14:53 10° SSE
CZ-2C R/B 2.4 18:06:43 10° SSE 18:11:41 79° ENE 18:16:49 10° N
USA 32 4.3 18:06:55 10° S 18:12:07 72° W 18:17:20 10° N
MOS 1 4.3 18:06:55 10° SSE 18:12:35 84° ENE 18:18:16 10° NNW
Meteor 1-12 Rocket 4.3 18:06:56 10° N 18:12:44 70° E 18:18:37 10° SSE
SJ-12 4.0 18:12:51 10° S 18:16:57 82° W 18:21:05 10° NNW
Tiangong 1 0.9 18:14:48 10° WSW 18:17:50 84° NNW 18:19:54 18° ENE
Cosmos 1455 Rocket 3.3 18:19:01 10° N 18:23:26 75° W 18:27:51 10° S
SKYMED 2 3.9 18:22:59 10° NNE 18:27:09 44° E 18:31:17 10° S
IDEFIX/ARIANE 42P 2.8 18:22:54 10° S 18:28:05 76° WSW 18:33:17 10° NNW
FALCON 9 R/B 4.3 17:55:45 10° WSW 18:28:45 71° S 18:35:31 16° E
Delta 2 Rocket 3.7 18:27:04 10° WSW 18:30:38 49° SSE 18:33:18 19° E
ASTRO F (AKARI) 4.2 18:28:57 10° NNE 18:32:05 84° WNW 18:35:14 10° SSW
Meteor 2-4 Rocket 4.3 18:30:46 10° SSE 18:35:25 31° E 18:38:55 16° NE
Okean 1-7 Rocket 3.9 18:31:12 10° SSE 18:35:31 46° E 18:39:48 10° NNE
Thor Agena Rocket 4.5 18:35:03 10° N 18:40:04 50° WNW 18:45:08 10° SW
Cosmos 1809 Rocket 4.4 18:33:56 10° N 18:40:06 75° E 18:46:11 10° SSE
Cosmos 1812 4.4 18:37:11 10° SW 18:40:43 34° WNW 18:44:16 10° NNW
Cosmos 1934 Rocket 4.4 18:42:28 10° N 18:48:11 37° ENE 18:53:55 10° SE
NOSS 2-1 (D) 3.1 18:47:52 10° SSW 18:51:39 78° ESE 18:53:30 31° NE
NOSS 2-1 (C) 3.2 18:48:33 10° SSW 18:52:21 76° ESE 18:54:09 32° NE
Abrixas 3.9 18:52:59 10° NW 18:54:52 25° N 18:54:52 25° N
Timation 1 Rocket 4.3 18:53:35 10° SSW 18:59:33 89° ESE 19:04:20 17° NNE
DMSP B5D1-3 4.4 18:57:25 10° NNE 19:02:36 81° ESE 19:07:42 10° S
NOSS 7 (E) 4.4 18:59:52 10° SSW 19:03:24 60° ESE 19:03:26 60° ESE
Cosmos 1346 Rocket 4.1 19:00:37 10° SSW 19:04:16 38° WNW 19:07:55 10° N
Cosmos 2297 4.0 18:59:51 10° SSW 19:05:27 65° WNW 19:10:21 14° NNE
Cosmos 2239 Rocket 4.4 19:00:21 10° N 19:06:32 68° E 19:12:38 10° SSE
BREEZE M DEB (TANK) 2.9 18:59:18 10° WSW 19:07:39 60° NW 19:08:45 40° NNE
Timation 2 Rocket 4.2 19:04:05 10° NNW 19:10:59 87° WSW 19:17:51 10° SSE
NOSS 2-1 (E) 3.4 19:07:08 10° SW 19:10:59 73° WNW 19:12:13 43° NNE
NOAA 12 4.0 19:09:41 10° SSE 19:14:56 69° ENE 19:20:10 10° N
COSMO-SKYMED 1 3.4 19:10:58 10° N 19:15:10 49° WNW 19:19:21 10° SSW
Cosmos 1821 Rocket 3.8 19:11:12 10° N 19:17:20 80° E 19:23:25 10° S
Cosmos 2278 Rocket 4.1 19:13:03 10° WSW 19:17:40 25° WNW 19:22:19 10° N
Intercosmos 25 4.0 19:18:51 10° NNW 19:21:53 44° W 19:25:12 10° SSW
Okean 2 4.4 19:21:11 10° S 19:23:37 34° SSE 19:23:37 34° SSE
CZ-3B DEB 4.0 19:22:18 10° WNW 19:26:52 31° N 19:31:38 21° NNE
Cosmos 1605 Rocket 4.0 19:21:44 10° N 19:27:53 53° E 19:33:54 10° SSE
METEOR-M 4.0 19:25:18 10° SSE 19:30:38 81° ENE 19:36:00 10° N
Cosmos 2056 Rocket 3.4 19:26:05 10° SSW 19:31:28 87° ESE 19:32:41 56° NNE
Cosmos 1025 Rocket 3.6 19:30:37 10° SSW 19:34:54 57° W 19:36:25 37° NNW
Cosmos 1833 Rocket 3.1 19:36:17 10° NNW 19:41:50 61° WSW 19:47:21 10° S
NOSS 3-4 (A) 3.7 19:36:47 10° NNW 19:43:50 69° NE 19:45:08 58° ESE
NOSS 3-4 (C) 3.7 19:36:53 10° NNW 19:43:56 68° NE 19:45:08 59° ESE
Cosmos 2082 Rocket 3.1 19:39:14 10° NW 19:44:39 48° WSW 19:50:05 10° S
Cosmos 1624 Rocket 4.3 19:39:47 10° SSW 19:44:55 65° WNW 19:46:00 51° NNW
GEOS 3 Rocket 3.5 19:47:42 79° SSW 19:47:53 81° SW 19:53:01 10° NW
Tiangong 1 4.5 19:51:29 10° WNW 19:51:36 11° WNW 19:51:36 11° WNW
Meteor 1-15 Rocket 4.3 19:49:25 10° NNW 19:55:20 79° W 20:01:06 10° S
Cosmos 1727 Rocket 4.0 19:55:12 10° S 20:00:30 67° S 20:00:30 67° S
Cosmos 2369 Rocket 4.2 20:17:11 10° SSW 20:18:33 18° SSW 20:18:33 18° SSW
ATLAS 3B CENTAUR R/B 4.4 21:00:11 10° W 21:08:44 28° SW 21:08:44 28° SW
